Date String (YYYY-MM-DD hh:mm:ss) UTC,Instrument flags,absolute air pressure of the measurement (hPa),sample flow rate (lpm),inlet stack bypass flow (lpm),air temperature of the measurement (°C),ambient temperature measured by the external sensor (°C),aerosol sample conditioner tube jacket temperature (°C),OPC LED temperature (°C),internal box temperature (°C),relative humidity of the measurement (%),span deviation,mass concentration of particles derived from Lorenz-Mie calculation of OPC scattering (μg/m³),mass concentration of particles derived from Lorenz-Mie calculation of OPC scattering (μg/m³),mass concentration of particles derived from Lorenz-Mie calculation of OPC scattering (μg/m³)
DateTimeUTC,F1_M11,P_M11,Q1_M11,Q2_M11,T1_M11,T2_M11,T3_M11,T4_M11,T5_M11,U1_M11,ZSPAN_M11,X0_M11,X2_M11,X1_M11
2024-05-07 07:00:00,SystemResetWarning,0815.7,5.00,000.00,021.4,020.7,000.0,029.6,023.0,010.5,0000.0,0004.31,0001.85,0000.91
2024-05-07 07:01:00,SystemResetWarning,0815.5,5.00,000.00,021.4,020.7,000.0,029.5,023.0,010.6,0000.0,0004.28,0001.84,0000.94
2024-05-07 07:02:00,SystemResetWarning,0815.3,5.00,000.00,021.4,020.7,000.0,029.5,023.0,010.7,0000.0,0004.29,0001.80,0000.94
2024-05-07 07:03:00,SystemResetWarning,0815.5,5.00,000.00,021.3,020.6,000.0,029.5,023.0,010.5,0000.0,0004.63,0001.80,0000.95
2024-05-07 07:04:00,SystemResetWarning,0815.6,5.00,000.00,021.3,020.6,000.0,029.5,022.9,010.6,0000.0,0004.65,0001.80,0000.96
2024-05-07 07:05:00,SystemResetWarning,0815.4,5.01,000.00,021.3,020.6,000.0,029.5,022.9,010.9,0000.0,0004.64,0001.78,0000.97
2024-05-07 07:06:00,SystemResetWarning,0815.6,5.01,000.00,021.3,020.6,000.0,029.5,023.0,011.1,0000.0,0004.73,0001.81,0000.98
2024-05-07 07:07:00,SystemResetWarning,0815.7,5.00,000.00,021.3,020.6,000.0,029.5,023.0,011.1,0000.0,0004.72,0001.82,0000.99
2024-05-07 07:08:00,SystemResetWarning,0815.8,5.00,000.00,021.3,020.5,000.0,029.5,023.0,010.8,0000.0,0005.31,0001.83,0000.99
2024-05-07 07:09:00,SystemResetWarning,0815.8,5.00,000.00,021.3,020.5,000.0,029.5,022.9,010.8,0000.0,0005.75,0001.87,0001.00
2024-05-07 07:10:00,SystemResetWarning,0815.9,5.00,000.00,021.3,020.5,000.0,029.5,022.9,010.8,0000.0,0005.40,0001.85,0001.00
2024-05-07 07:11:00,SystemResetWarning,0815.9,5.00,000.00,021.3,020.5,000.0,029.5,022.9,010.9,0000.0,0005.33,0001.86,0000.99
2024-05-07 07:12:00,SystemResetWarning,0815.7,5.00,000.00,021.3,020.6,000.0,029.5,022.9,011.0,0000.0,0005.60,0001.93,0000.98
2024-05-07 07:13:00,SystemResetWarning,0815.6,5.00,000.00,021.3,020.6,000.0,029.5,022.9,010.9,0000.0,0005.57,0001.97,0000.99
2024-05-07 07:14:00,SystemResetWarning,0815.4,5.00,000.00,021.3,020.6,000.0,029.5,022.9,010.4,0000.0,0005.30,0002.00,0000.99
2024-05-07 07:15:00,SystemResetWarning,0815.3,4.99,000.00,021.3,020.6,000.0,029.5,022.9,010.4,0000.0,0005.35,0002.03,0001.00
2024-05-07 07:16:00,SystemResetWarning,0815.6,5.01,000.00,021.3,020.6,000.0,029.5,023.0,010.5,0000.0,0005.41,0002.07,0001.00
2024-05-07 07:17:00,SystemResetWarning,0815.6,5.01,000.00,021.3,020.5,000.0,029.5,022.9,010.6,0000.0,0005.24,0002.03,0001.00
2024-05-07 07:18:00,SystemResetWarning,0815.6,5.01,000.00,021.3,020.5,000.0,029.5,022.9,010.7,0000.0,0005.40,0002.10,0001.01
2024-05-07 07:19:00,SystemResetWarning,0815.5,5.00,000.00,021.3,020.5,000.0,029.5,022.9,010.7,0000.0,0004.93,0002.16,0001.03
2024-05-07 07:20:00,SystemResetWarning,0815.4,5.00,000.00,021.3,020.5,000.0,029.5,022.9,010.9,0000.0,0004.47,0002.17,0001.04
2024-05-07 07:21:00,SystemResetWarning,0815.3,4.99,000.00,021.3,020.5,000.0,029.5,022.9,010.7,0000.0,0005.05,0002.22,0001.05
2024-05-07 07:22:00,SystemResetWarning,0815.5,4.99,000.00,021.3,020.5,000.0,029.5,022.9,010.6,0000.0,0005.23,0002.17,0001.06
2024-05-07 07:23:00,SystemResetWarning,0815.6,5.00,000.00,021.2,020.5,000.0,029.4,022.9,010.9,0000.0,0005.29,0002.15,0001.07
2024-05-07 07:24:00,SystemResetWarning,0815.6,5.00,000.00,021.3,020.5,000.0,029.4,022.9,010.8,0000.0,0005.22,0002.16,0001.07
2024-05-07 07:25:00,SystemResetWarning,0815.6,5.00,000.00,021.3,020.5,000.0,029.4,022.9,010.7,0000.0,0005.15,0002.11,0001.07
2024-05-07 07:26:00,SystemResetWarning,0815.7,5.01,000.00,021.3,020.6,000.0,029.4,022.8,010.8,0000.0,0005.34,0002.12,0001.06
2024-05-07 07:27:00,SystemResetWarning,0815.6,5.00,000.00,021.3,020.6,000.0,029.4,022.9,010.7,0000.0,0005.21,0002.08,0001.06
2024-05-07 07:28:00,SystemResetWarning,0815.5,5.00,000.00,021.3,020.6,000.0,029.4,022.9,010.7,0000.0,0005.91,0002.16,0001.06
2024-05-07 07:29:00,SystemResetWarning,0815.3,5.00,000.00,021.3,020.6,000.0,029.4,022.9,010.3,0000.0,0006.09,0002.16,0001.06
2024-05-07 07:30:00,SystemResetWarning,0815.3,5.00,000.00,021.3,020.6,000.0,029.4,022.9,010.3,0000.0,0006.52,0002.14,0001.06
2024-05-07 07:31:00,SystemResetWarning,0815.3,5.00,000.00,021.3,020.6,000.0,029.4,022.9,010.3,0000.0,0006.49,0002.10,0001.05
2024-05-07 07:32:00,SystemResetWarning,0815.2,5.00,000.00,021.3,020.6,000.0,029.4,022.9,010.4,0000.0,0007.15,0002.04,0001.05
2024-05-07 07:33:00,SystemResetWarning,0815.1,5.00,000.00,021.3,020.6,000.0,029.4,022.9,010.5,0000.0,0006.57,0002.06,0001.04
2024-05-07 07:34:00,SystemResetWarning,0815.2,5.00,000.00,021.3,020.6,000.0,029.4,022.9,010.6,0000.0,0006.56,0002.04,0001.03
2024-05-07 07:35:00,SystemResetWarning,0815.2,5.00,000.00,021.3,020.5,000.0,029.4,022.9,010.8,0000.0,0006.60,0002.11,0001.03
2024-05-07 07:36:00,SystemResetWarning,0815.2,5.00,000.00,021.3,020.5,000.0,029.4,022.9,010.7,0000.0,0006.61,0002.12,0001.03
2024-05-07 07:37:00,SystemResetWarning,0815.1,5.00,000.00,021.2,020.5,000.0,029.4,022.9,010.6,0000.0,0006.45,0002.09,0001.02
2024-05-07 07:38:00,SystemResetWarning,0815.1,5.00,000.00,021.2,020.5,000.0,029.4,022.9,010.6,0000.0,0006.66,0002.14,0001.03
2024-05-07 07:39:00,SystemResetWarning,0815.0,5.00,000.00,021.2,020.5,000.0,029.4,022.9,010.7,0000.0,0006.29,0002.09,0001.02
2024-05-07 07:40:00,SystemResetWarning,0814.9,5.02,000.00,021.2,020.5,000.0,029.4,022.9,010.6,0000.0,0005.97,0002.07,0001.01
2024-05-07 07:41:00,SystemResetWarning,0815.0,5.00,000.00,021.2,020.5,000.0,029.4,022.9,010.7,0000.0,0005.88,0002.07,0001.00
2024-05-07 07:42:00,SystemResetWarning,0815.1,5.00,000.00,021.2,020.5,000.0,029.4,022.9,010.5,0000.0,0006.23,0002.11,0000.99
2024-05-07 07:43:00,SystemResetWarning,0815.1,5.00,000.00,021.2,020.5,000.0,029.4,022.9,010.5,0000.0,0006.17,0002.10,0000.99
2024-05-07 07:44:00,SystemResetWarning,0814.9,4.99,000.00,021.2,020.5,000.0,029.4,022.9,010.9,0000.0,0006.67,0002.14,0000.99
2024-05-07 07:45:00,SystemResetWarning,0815.1,5.00,000.00,021.2,020.5,000.0,029.4,022.9,011.0,0000.0,0006.92,0002.10,0000.98
2024-05-07 07:46:00,SystemResetWarning,0815.0,5.01,000.00,021.2,020.4,000.0,029.4,022.9,011.2,0000.0,0007.02,0002.01,0000.97
2024-05-07 07:47:00,SystemResetWarning,0814.9,5.01,000.00,021.2,020.4,000.0,029.4,022.8,011.3,0000.0,0007.29,0002.07,0000.98
2024-05-07 07:48:00,SystemResetWarning,0815.1,5.00,000.00,021.2,020.4,000.0,029.4,022.8,010.5,0000.0,0007.87,0002.11,0000.98
2024-05-07 07:49:00,SystemResetWarning,0815.1,4.99,000.00,021.2,020.4,000.0,029.4,022.8,011.0,0000.0,0008.19,0002.08,0000.97
2024-05-07 07:50:00,SystemResetWarning,0815.2,5.00,000.00,021.2,020.4,000.0,029.4,022.8,010.8,0000.0,0008.17,0002.05,0000.98
2024-05-07 07:51:00,SystemResetWarning,0815.3,5.00,000.00,021.2,020.4,000.0,029.4,022.8,010.8,0000.0,0008.26,0002.08,0000.99
2024-05-07 07:52:00,SystemResetWarning,0815.1,5.00,000.00,021.2,020.4,000.0,029.4,022.8,010.9,0000.0,0008.04,0002.09,0001.00
2024-05-07 07:53:00,SystemResetWarning,0814.9,5.01,000.00,021.2,020.4,000.0,029.4,022.8,010.4,0000.0,0007.96,0002.12,0001.01
2024-05-07 07:54:00,SystemResetWarning,0815.2,5.00,000.00,021.2,020.4,000.0,029.4,022.8,010.5,0000.0,0007.46,0002.10,0001.01
2024-05-07 07:55:00,SystemResetWarning,0815.3,5.00,000.00,021.2,020.4,000.0,029.4,022.8,010.4,0000.0,0007.46,0002.12,0001.03
2024-05-07 07:56:00,SystemResetWarning,0815.2,5.00,000.00,021.2,020.4,000.0,029.4,022.8,010.4,0000.0,0007.35,0002.17,0001.04
2024-05-07 07:57:00,SystemResetWarning,0815.2,4.99,000.00,021.1,020.4,000.0,029.3,022.7,010.1,0000.0,0007.26,0002.20,0001.04
2024-05-07 07:58:00,SystemResetWarning,0815.2,4.99,000.00,021.1,020.4,000.0,029.3,022.7,010.2,0000.0,0006.91,0002.15,0001.04
2024-05-07 07:59:00,SystemResetWarning,0815.1,5.00,000.00,021.1,020.4,000.0,029.3,022.7,010.5,0000.0,0005.94,0002.14,0001.05
